Time,TemperatureF,DewpointF,PressureIn,WindDirection,WindDirectionDegrees,WindSpeedMPH,WindSpeedGustMPH,Humidity,HourlyPrecipIn,Conditions,Clouds,dailyrainin,SoftwareType,DateUTC
2013-04-06 00:04:00,-0.5,-11.0,30.25,NNW,330,3.0,8.0,60,0.00,,,0.00,LWC V2.10 B1813,2013-04-06 08:04:00,
2013-04-06 00:09:00,-0.5,-10.4,30.25,North,0,4.0,9.0,62,0.00,,,0.00,LWC V2.10 B1813,2013-04-06 08:09:00,
2013-04-06 00:14:00,-0.2,-10.7,30.25,NNE,25,2.0,10.0,60,0.00,,,0.00,LWC V2.10 B1813,2013-04-06 08:14:00,
2013-04-06 00:19:00,0.0,-10.5,30.25,NNE,21,2.0,7.0,60,0.00,,,0.00,LWC V2.10 B1813,2013-04-06 08:19:00,
2013-04-06 00:24:00,0.0,-10.9,30.25,NNW,329,2.0,5.0,59,0.00,,,0.00,LWC V2.10 B1813,2013-04-06 08:24:00,
2013-04-06 00:29:00,0.0,-10.5,30.25,North,355,2.0,6.0,60,0.00,,,0.00,LWC V2.10 B1813,2013-04-06 08:29:00,
2013-04-06 00:34:00,-0.1,-10.6,30.25,NW,321,3.0,9.0,60,0.00,,,0.00,LWC V2.10 B1813,2013-04-06 08:34:00,
2013-04-06 00:39:00,0.0,-10.9,30.25,NNE,19,5.0,12.0,59,0.00,,,0.00,LWC V2.10 B1813,2013-04-06 08:39:00,
2013-04-06 00:44:00,0.0,-10.5,30.25,North,11,3.0,11.0,60,0.00,,,0.00,LWC V2.10 B1813,2013-04-06 08:44:00,
2013-04-06 00:49:00,0.0,-10.5,30.25,NNE,20,6.0,11.0,60,0.00,,,0.00,LWC V2.10 B1813,2013-04-06 08:49:00,
2013-04-06 00:54:00,0.1,-10.4,30.25,NW,325,7.0,8.0,60,0.00,,,0.00,LWC V2.10 B1813,2013-04-06 08:54:00,
2013-04-06 00:59:00,0.0,-10.5,30.25,North,0,2.0,12.0,60,0.00,,,0.00,LWC V2.10 B1813,2013-04-06 08:59:00,
2013-04-06 01:04:00,0.2,-10.7,30.24,NNE,13,5.0,9.0,59,0.00,,,0.00,LWC V2.10 B1813,2013-04-06 09:04:00,
2013-04-06 01:09:00,0.3,-10.6,30.24,North,5,6.0,12.0,59,0.00,,,0.00,LWC V2.10 B1813,2013-04-06 09:09:00,
2013-04-06 01:14:00,0.5,-10.8,30.24,North,5,5.0,16.0,58,0.00,,,0.00,LWC V2.10 B1813,2013-04-06 09:14:00,
2013-04-06 01:19:00,0.7,-10.6,30.24,North,9,8.0,10.0,58,0.00,,,0.00,LWC V2.10 B1813,2013-04-06 09:19:00,
2013-04-06 01:24:00,0.7,-10.6,30.24,NNW,339,0.0,5.0,58,0.00,,,0.00,LWC V2.10 B1813,2013-04-06 09:24:00,
2013-04-06 01:29:00,0.6,-10.7,30.24,NE,48,7.0,9.0,58,0.00,,,0.00,LWC V2.10 B1813,2013-04-06 09:29:00,
2013-04-06 01:34:00,0.5,-10.8,30.23,North,10,4.0,8.0,58,0.00,,,0.00,LWC V2.10 B1813,2013-04-06 09:34:00,
2013-04-06 01:39:00,0.4,-10.8,30.24,North,5,9.0,9.0,58,0.00,,,0.00,LWC V2.10 B1813,2013-04-06 09:39:00,
2013-04-06 01:44:00,0.2,-10.7,30.23,NE,34,1.0,8.0,59,0.00,,,0.00,LWC V2.10 B1813,2013-04-06 09:44:00,
2013-04-06 01:49:00,0.1,-10.8,30.23,North,10,3.0,11.0,59,0.00,,,0.00,LWC V2.10 B1813,2013-04-06 09:49:00,
2013-04-06 01:54:00,0.5,-10.4,30.23,NNW,347,10.0,14.0,59,0.00,,,0.00,LWC V2.10 B1813,2013-04-06 09:54:00,
2013-04-06 01:59:00,0.9,-10.4,30.23,North,355,3.0,9.0,58,0.00,,,0.00,LWC V2.10 B1813,2013-04-06 09:59:00,
2013-04-06 02:04:00,1.0,-9.9,30.23,NW,322,2.0,9.0,59,0.00,,,0.00,LWC V2.10 B1813,2013-04-06 10:04:00,
2013-04-06 02:09:00,1.2,-10.1,30.23,NW,315,2.0,8.0,58,0.00,,,0.00,LWC V2.10 B1813,2013-04-06 10:09:00,
2013-04-06 02:14:00,1.4,-9.9,30.23,NNW,337,4.0,6.0,58,0.00,,,0.00,LWC V2.10 B1813,2013-04-06 10:14:00,
2013-04-06 02:19:00,1.5,-9.8,30.23,NE,35,1.0,9.0,58,0.00,,,0.00,LWC V2.10 B1813,2013-04-06 10:19:00,
2013-04-06 02:24:00,1.4,-9.9,30.23,North,11,8.0,8.0,58,0.00,,,0.00,LWC V2.10 B1813,2013-04-06 10:24:00,
2013-04-06 02:29:00,1.3,-10.0,30.22,North,355,4.0,5.0,58,0.00,,,0.00,LWC V2.10 B1813,2013-04-06 10:29:00,
2013-04-06 02:34:00,1.1,-10.2,30.22,NNW,336,4.0,11.0,58,0.00,,,0.00,LWC V2.10 B1813,2013-04-06 10:34:00,
2013-04-06 02:39:00,1.1,-10.2,30.22,North,0,5.0,8.0,58,0.00,,,0.00,LWC V2.10 B1813,2013-04-06 10:39:00,
2013-04-06 02:44:00,1.0,-10.3,30.22,NNE,14,4.0,6.0,58,0.00,,,0.00,LWC V2.10 B1813,2013-04-06 10:44:00,
2013-04-06 02:49:00,0.7,-10.6,30.22,NNE,24,6.0,9.0,58,0.00,,,0.00,LWC V2.10 B1813,2013-04-06 10:49:00,
2013-04-06 02:54:00,0.4,-10.8,30.21,ENE,58,4.0,7.0,58,0.00,,,0.00,LWC V2.10 B1813,2013-04-06 10:54:00,
2013-04-06 02:59:00,0.4,-10.8,30.21,North,10,5.0,7.0,58,0.00,,,0.00,LWC V2.10 B1813,2013-04-06 10:59:00,
2013-04-06 03:04:00,0.6,-10.7,30.21,NE,51,8.0,12.0,58,0.00,,,0.00,LWC V2.10 B1813,2013-04-06 11:04:00,
2013-04-06 03:09:00,0.7,-10.2,30.21,NNE,18,4.0,9.0,59,0.00,,,0.00,LWC V2.10 B1813,2013-04-06 11:09:00,
2013-04-06 03:14:00,0.6,-10.3,30.21,NW,323,2.0,3.0,59,0.00,,,0.00,LWC V2.10 B1813,2013-04-06 11:14:00,
2013-04-06 03:19:00,0.3,-10.6,30.21,NNW,348,3.0,7.0,59,0.00,,,0.00,LWC V2.10 B1813,2013-04-06 11:19:00,
2013-04-06 03:24:00,-0.2,-10.7,30.21,North,0,2.0,4.0,60,0.00,,,0.00,LWC V2.10 B1813,2013-04-06 11:24:00,
2013-04-06 03:29:00,-0.7,-11.2,30.21,NNE,14,2.0,6.0,60,0.00,,,0.00,LWC V2.10 B1813,2013-04-06 11:29:00,
2013-04-06 03:33:00,-0.9,-11.1,30.20,NW,326,1.0,5.0,61,0.00,,,0.00,LWC V2.10 B1813,2013-04-06 11:33:00,
2013-04-06 03:39:00,-1.1,-11.3,30.20,NNW,333,4.0,8.0,61,0.00,,,0.00,LWC V2.10 B1813,2013-04-06 11:39:00,
2013-04-06 03:44:00,-1.0,-11.2,30.20,NNE,26,9.0,9.0,61,0.00,,,0.00,LWC V2.10 B1813,2013-04-06 11:44:00,
2013-04-06 03:49:00,-0.9,-11.1,30.20,NNW,347,5.0,12.0,61,0.00,,,0.00,LWC V2.10 B1813,2013-04-06 11:49:00,
2013-04-06 03:54:00,-0.7,-11.2,30.20,NNW,331,1.0,4.0,60,0.00,,,0.00,LWC V2.10 B1813,2013-04-06 11:54:00,
2013-04-06 03:59:00,-0.5,-11.0,30.19,NNW,341,4.0,8.0,60,0.00,,,0.00,LWC V2.10 B1813,2013-04-06 11:59:00,
2013-04-06 04:04:00,-0.6,-11.4,30.19,North,0,2.0,5.0,59,0.00,,,0.00,LWC V2.10 B1813,2013-04-06 12:04:00,
2013-04-06 04:09:00,-0.8,-11.0,30.19,North,11,7.0,8.0,61,0.00,,,0.00,LWC V2.10 B1813,2013-04-06 12:09:00,
2013-04-06 04:14:00,-0.8,-11.3,30.20,North,0,4.0,4.0,60,0.00,,,0.00,LWC V2.10 B1813,2013-04-06 12:14:00,
2013-04-06 04:19:00,-0.9,-11.4,30.19,NNE,32,4.0,4.0,60,0.00,,,0.00,LWC V2.10 B1813,2013-04-06 12:19:00,
2013-04-06 04:24:00,-0.9,-11.4,30.19,NNE,20,5.0,11.0,60,0.00,,,0.00,LWC V2.10 B1813,2013-04-06 12:24:00,
2013-04-06 04:29:00,-0.9,-11.4,30.19,NNE,19,7.0,7.0,60,0.00,,,0.00,LWC V2.10 B1813,2013-04-06 12:29:00,
2013-04-06 04:34:00,-0.8,-11.3,30.19,North,0,1.0,15.0,60,0.00,,,0.00,LWC V2.10 B1813,2013-04-06 12:34:00,
2013-04-06 04:39:00,-0.6,-11.1,30.19,NNW,330,3.0,10.0,60,0.00,,,0.00,LWC V2.10 B1813,2013-04-06 12:39:00,
2013-04-06 04:44:00,-0.5,-11.0,30.19,NNW,338,7.0,10.0,60,0.00,,,0.00,LWC V2.10 B1813,2013-04-06 12:44:00,
2013-04-06 04:49:00,-0.3,-11.2,30.19,North,0,2.0,12.0,59,0.00,,,0.00,LWC V2.10 B1813,2013-04-06 12:49:00,
2013-04-06 04:54:00,-0.1,-10.6,30.19,NNE,21,3.0,16.0,60,0.00,,,0.00,LWC V2.10 B1813,2013-04-06 12:54:00,
2013-04-06 04:59:00,0.1,-10.8,30.19,NNE,15,6.0,11.0,59,0.00,,,0.00,LWC V2.10 B1813,2013-04-06 12:59:00,
2013-04-06 05:04:00,0.2,-10.7,30.19,North,10,3.0,13.0,59,0.00,,,0.00,LWC V2.10 B1813,2013-04-06 13:04:00,
2013-04-06 05:09:00,0.5,-10.8,30.18,NNE,15,7.0,14.0,58,0.00,,,0.00,LWC V2.10 B1813,2013-04-06 13:09:00,
2013-04-06 05:14:00,0.7,-10.2,30.18,ENE,67,11.0,13.0,59,0.00,,,0.00,LWC V2.10 B1813,2013-04-06 13:14:00,
2013-04-06 05:19:00,0.8,-10.5,30.18,NNE,32,12.0,12.0,58,0.00,,,0.00,LWC V2.10 B1813,2013-04-06 13:19:00,
2013-04-06 05:24:00,0.9,-10.4,30.18,NNE,24,7.0,17.0,58,0.00,,,0.00,LWC V2.10 B1813,2013-04-06 13:24:00,
2013-04-06 05:29:00,0.9,-10.4,30.18,North,5,3.0,11.0,58,0.00,,,0.00,LWC V2.10 B1813,2013-04-06 13:29:00,
2013-04-06 05:34:00,0.8,-10.8,30.18,NNE,19,9.0,11.0,57,0.00,,,0.00,LWC V2.10 B1813,2013-04-06 13:34:00,
2013-04-06 05:39:00,0.7,-10.6,30.18,North,5,12.0,12.0,58,0.00,,,0.00,LWC V2.10 B1813,2013-04-06 13:39:00,
2013-04-06 05:44:00,0.5,-10.8,30.18,North,5,8.0,10.0,58,0.00,,,0.00,LWC V2.10 B1813,2013-04-06 13:44:00,
2013-04-06 05:49:00,0.3,-10.6,30.17,NNW,348,2.0,8.0,59,0.00,,,0.00,LWC V2.10 B1813,2013-04-06 13:49:00,
2013-04-06 05:54:00,0.0,-11.2,30.17,North,10,5.0,7.0,58,0.00,,,0.00,LWC V2.10 B1813,2013-04-06 13:54:00,
2013-04-06 05:59:00,0.2,-11.0,30.17,NNW,328,7.0,11.0,58,0.00,,,0.00,LWC V2.10 B1813,2013-04-06 13:59:00,
2013-04-06 06:04:00,0.4,-10.5,30.17,North,11,2.0,9.0,59,0.00,,,0.00,LWC V2.10 B1813,2013-04-06 14:04:00,
2013-04-06 06:09:00,0.5,-10.8,30.17,North,355,3.0,5.0,58,0.00,,,0.00,LWC V2.10 B1813,2013-04-06 14:09:00,
2013-04-06 06:14:00,0.7,-10.6,30.17,NE,44,5.0,11.0,58,0.00,,,0.00,LWC V2.10 B1813,2013-04-06 14:14:00,
2013-04-06 06:19:00,0.8,-10.5,30.17,NNW,346,4.0,9.0,58,0.00,,,0.00,LWC V2.10 B1813,2013-04-06 14:19:00,
2013-04-06 06:24:00,0.7,-10.6,30.17,North,0,2.0,8.0,58,0.00,,,0.00,LWC V2.10 B1813,2013-04-06 14:24:00,
2013-04-06 06:29:00,0.6,-10.7,30.17,North,0,4.0,5.0,58,0.00,,,0.00,LWC V2.10 B1813,2013-04-06 14:29:00,
2013-04-06 06:34:00,0.4,-10.5,30.17,North,9,11.0,11.0,59,0.00,,,0.00,LWC V2.10 B1813,2013-04-06 14:34:00,
2013-04-06 06:39:00,0.4,-10.8,30.17,NNW,340,3.0,9.0,58,0.00,,,0.00,LWC V2.10 B1813,2013-04-06 14:39:00,
2013-04-06 06:44:00,0.2,-10.4,30.16,North,9,2.0,12.0,60,0.00,,,0.00,LWC V2.10 B1813,2013-04-06 14:44:00,
2013-04-06 06:49:00,0.2,-10.7,30.16,NNE,15,2.0,7.0,59,0.00,,,0.00,LWC V2.10 B1813,2013-04-06 14:49:00,
2013-04-06 06:54:00,0.2,-10.7,30.16,North,0,5.0,8.0,59,0.00,,,0.00,LWC V2.10 B1813,2013-04-06 14:54:00,
2013-04-06 06:59:00,0.4,-10.5,30.16,North,349,1.0,7.0,59,0.00,,,0.00,LWC V2.10 B1813,2013-04-06 14:59:00,
2013-04-06 07:04:00,0.5,-10.4,30.16,NW,318,3.0,4.0,59,0.00,,,0.00,LWC V2.10 B1813,2013-04-06 15:04:00,
2013-04-06 07:09:00,0.2,-10.7,30.16,North,355,3.0,7.0,59,0.00,,,0.00,LWC V2.10 B1813,2013-04-06 15:09:00,
2013-04-06 07:14:00,0.1,-10.8,30.16,North,350,2.0,8.0,59,0.00,,,0.00,LWC V2.10 B1813,2013-04-06 15:14:00,
2013-04-06 07:19:00,0.0,-10.9,30.16,North,355,1.0,3.0,59,0.00,,,0.00,LWC V2.10 B1813,2013-04-06 15:19:00,
2013-04-06 07:24:00,-0.2,-11.1,30.16,North,9,4.0,6.0,59,0.00,,,0.00,LWC V2.10 B1813,2013-04-06 15:24:00,
2013-04-06 07:29:00,-0.1,-10.6,30.16,NNW,346,0.0,5.0,60,0.00,,,0.00,LWC V2.10 B1813,2013-04-06 15:29:00,
2013-04-06 07:34:00,0.4,-10.2,30.16,North,11,0.0,9.0,60,0.00,,,0.00,LWC V2.10 B1813,2013-04-06 15:34:00,
2013-04-06 07:39:00,0.9,-10.0,30.16,North,0,0.0,6.0,59,0.00,,,0.00,LWC V2.10 B1813,2013-04-06 15:39:00,
2013-04-06 07:44:00,1.3,-10.0,30.16,North,350,8.0,8.0,58,0.00,,,0.00,LWC V2.10 B1813,2013-04-06 15:44:00,
2013-04-06 07:49:00,1.9,-9.8,30.15,NNE,19,4.0,7.0,57,0.00,,,0.00,LWC V2.10 B1813,2013-04-06 15:49:00,
2013-04-06 07:54:00,2.4,-9.7,30.16,North,355,4.0,11.0,56,0.00,,,0.00,LWC V2.10 B1813,2013-04-06 15:54:00,
2013-04-06 07:59:00,3.0,-9.1,30.15,North,9,0.0,13.0,56,0.00,,,0.00,LWC V2.10 B1813,2013-04-06 15:59:00,
2013-04-06 08:04:00,3.7,-8.8,30.15,North,355,3.0,10.0,55,0.00,,,0.00,LWC V2.10 B1813,2013-04-06 16:04:00,
2013-04-06 08:09:00,4.2,-8.0,30.15,NNW,346,1.0,4.0,56,0.00,,,0.00,LWC V2.10 B1813,2013-04-06 16:09:00,
2013-04-06 08:14:00,4.5,-8.1,30.16,North,355,4.0,5.0,55,0.00,,,0.00,LWC V2.10 B1813,2013-04-06 16:14:00,
2013-04-06 08:19:00,4.6,-8.3,30.15,NNE,25,4.0,9.0,54,0.00,,,0.00,LWC V2.10 B1813,2013-04-06 16:19:00,
2013-04-06 08:24:00,5.0,-8.0,30.15,NNW,348,4.0,7.0,54,0.00,,,0.00,LWC V2.10 B1813,2013-04-06 16:24:00,
2013-04-06 08:29:00,5.5,-7.9,30.15,ENE,64,3.0,8.0,53,0.00,,,0.00,LWC V2.10 B1813,2013-04-06 16:29:00,
2013-04-06 08:34:00,5.8,-8.0,30.15,NNE,23,2.0,8.0,52,0.00,,,0.00,LWC V2.10 B1813,2013-04-06 16:34:00,
2013-04-06 08:39:00,6.0,-7.8,30.15,NNE,28,4.0,9.0,52,0.00,,,0.00,LWC V2.10 B1813,2013-04-06 16:39:00,
2013-04-06 08:44:00,6.4,-7.0,30.15,NNE,19,2.0,4.0,53,0.00,,,0.00,LWC V2.10 B1813,2013-04-06 16:44:00,
2013-04-06 08:49:00,6.3,-6.7,30.15,ENE,76,2.0,4.0,54,0.00,,,0.00,LWC V2.10 B1813,2013-04-06 16:49:00,
2013-04-06 08:54:00,6.0,-7.8,30.15,NNE,28,5.0,5.0,52,0.00,,,0.00,LWC V2.10 B1813,2013-04-06 16:54:00,
2013-04-06 08:59:00,6.2,-7.6,30.15,North,0,0.0,4.0,52,0.00,,,0.00,LWC V2.10 B1813,2013-04-06 16:59:00,
2013-04-06 09:04:00,6.8,-7.1,30.15,NE,37,3.0,7.0,52,0.00,,,0.00,LWC V2.10 B1813,2013-04-06 17:04:00,
2013-04-06 09:09:00,7.5,-6.8,30.15,NE,51,3.0,6.0,51,0.00,,,0.00,LWC V2.10 B1813,2013-04-06 17:09:00,
2013-04-06 09:14:00,8.0,-5.9,30.15,North,0,4.0,7.0,52,0.00,,,0.00,LWC V2.10 B1813,2013-04-06 17:14:00,
2013-04-06 09:19:00,8.5,-5.9,30.15,NNW,332,4.0,5.0,51,0.00,,,0.00,LWC V2.10 B1813,2013-04-06 17:19:00,
2013-04-06 09:24:00,9.0,-6.2,30.15,NNW,338,1.0,3.0,49,0.00,,,0.00,LWC V2.10 B1813,2013-04-06 17:24:00,
2013-04-06 09:29:00,9.6,-5.7,30.14,NW,317,0.0,6.0,49,0.00,,,0.00,LWC V2.10 B1813,2013-04-06 17:29:00,
2013-04-06 09:34:00,9.9,-5.8,30.14,ENE,60,0.0,1.0,48,0.00,,,0.00,LWC V2.10 B1813,2013-04-06 17:34:00,
2013-04-06 09:39:00,10.3,-6.3,30.14,NNW,342,4.0,8.0,46,0.00,,,0.00,LWC V2.10 B1813,2013-04-06 17:39:00,
2013-04-06 09:44:00,9.6,-6.1,30.14,NNE,19,8.0,12.0,48,0.00,,,0.00,LWC V2.10 B1813,2013-04-06 17:44:00,
2013-04-06 09:49:00,9.7,-5.2,30.14,NE,56,6.0,9.0,50,0.00,,,0.00,LWC V2.10 B1813,2013-04-06 17:49:00,
2013-04-06 09:54:00,10.3,-5.4,30.14,NW,319,1.0,4.0,48,0.00,,,0.00,LWC V2.10 B1813,2013-04-06 17:54:00,
2013-04-06 09:59:00,10.5,-5.3,30.14,NE,44,8.0,8.0,48,0.00,,,0.00,LWC V2.10 B1813,2013-04-06 17:59:00,
2013-04-06 10:04:00,10.1,-6.1,30.14,NNE,26,5.0,7.0,47,0.00,,,0.00,LWC V2.10 B1813,2013-04-06 18:04:00,
2013-04-06 10:09:00,9.9,-5.4,30.14,NE,49,4.0,9.0,49,0.00,,,0.00,LWC V2.10 B1813,2013-04-06 18:09:00,
2013-04-06 10:14:00,9.4,-6.3,30.14,ENE,57,4.0,8.0,48,0.00,,,0.00,LWC V2.10 B1813,2013-04-06 18:14:00,
2013-04-06 10:19:00,9.4,-5.4,30.14,NNE,14,0.0,6.0,50,0.00,,,0.00,LWC V2.10 B1813,2013-04-06 18:19:00,
2013-04-06 10:24:00,9.5,-6.2,30.14,NE,40,3.0,9.0,48,0.00,,,0.00,LWC V2.10 B1813,2013-04-06 18:24:00,
2013-04-06 10:29:00,9.7,-6.4,30.14,ENE,57,4.0,7.0,47,0.00,,,0.00,LWC V2.10 B1813,2013-04-06 18:29:00,
2013-04-06 10:34:00,10.0,-4.9,30.14,North,355,3.0,7.0,50,0.00,,,0.00,LWC V2.10 B1813,2013-04-06 18:34:00,
2013-04-06 10:39:00,10.3,-5.4,30.14,NE,34,7.0,9.0,48,0.00,,,0.00,LWC V2.10 B1813,2013-04-06 18:39:00,
2013-04-06 10:44:00,10.1,-4.8,30.14,NNW,340,5.0,5.0,50,0.00,,,0.00,LWC V2.10 B1813,2013-04-06 18:44:00,
2013-04-06 10:49:00,10.9,-4.9,30.14,NNE,22,7.0,7.0,48,0.00,,,0.00,LWC V2.10 B1813,2013-04-06 18:49:00,
2013-04-06 10:54:00,11.4,-4.4,30.14,NNW,345,3.0,8.0,48,0.00,,,0.00,LWC V2.10 B1813,2013-04-06 18:54:00,
2013-04-06 10:59:00,11.4,-3.2,30.14,North,355,0.0,4.0,51,0.00,,,0.00,LWC V2.10 B1813,2013-04-06 18:59:00,
2013-04-06 11:04:00,11.5,-4.3,30.14,ENE,66,0.0,7.0,48,0.00,,,0.00,LWC V2.10 B1813,2013-04-06 19:04:00,
2013-04-06 11:09:00,11.9,-4.4,30.14,North,10,9.0,10.0,47,0.00,,,0.00,LWC V2.10 B1813,2013-04-06 19:09:00,
2013-04-06 11:14:00,12.1,-3.4,30.14,North,5,4.0,9.0,49,0.00,,,0.00,LWC V2.10 B1813,2013-04-06 19:14:00,
2013-04-06 11:19:00,12.6,-4.2,30.14,NE,34,4.0,4.0,46,0.00,,,0.00,LWC V2.10 B1813,2013-04-06 19:19:00,
2013-04-06 11:24:00,12.3,-4.0,30.14,NW,319,4.0,8.0,47,0.00,,,0.00,LWC V2.10 B1813,2013-04-06 19:24:00,
2013-04-06 11:29:00,12.9,-3.5,30.14,NW,325,6.0,8.0,47,0.00,,,0.00,LWC V2.10 B1813,2013-04-06 19:29:00,
2013-04-06 11:34:00,13.0,-3.0,30.14,NE,55,4.0,4.0,48,0.00,,,0.00,LWC V2.10 B1813,2013-04-06 19:34:00,
2013-04-06 11:39:00,13.2,-3.2,30.14,NE,45,7.0,10.0,47,0.00,,,0.00,LWC V2.10 B1813,2013-04-06 19:39:00,
2013-04-06 11:44:00,13.1,-3.3,30.14,NNW,343,3.0,6.0,47,0.00,,,0.00,LWC V2.10 B1813,2013-04-06 19:44:00,
2013-04-06 11:49:00,13.4,-3.5,30.14,NNW,346,2.0,6.0,46,0.00,,,0.00,LWC V2.10 B1813,2013-04-06 19:49:00,
2013-04-06 11:54:00,14.0,-3.4,30.14,North,9,0.0,4.0,45,0.00,,,0.00,LWC V2.10 B1813,2013-04-06 19:54:00,
2013-04-06 11:59:00,14.0,-2.5,30.14,NNW,345,2.0,10.0,47,0.00,,,0.00,LWC V2.10 B1813,2013-04-06 19:59:00,
2013-04-06 12:04:00,14.5,-1.6,30.14,North,350,0.0,8.0,48,0.00,,,0.00,LWC V2.10 B1813,2013-04-06 20:04:00,
2013-04-06 12:09:00,15.0,-2.5,30.14,North,0,4.0,10.0,45,0.00,,,0.00,LWC V2.10 B1813,2013-04-06 20:09:00,
2013-04-06 12:14:00,15.0,-1.6,30.14,NNW,340,0.0,6.0,47,0.00,,,0.00,LWC V2.10 B1813,2013-04-06 20:14:00,
2013-04-06 12:19:00,14.6,-3.3,30.14,NE,50,0.0,3.0,44,0.00,,,0.00,LWC V2.10 B1813,2013-04-06 20:19:00,
2013-04-06 12:24:00,14.1,-2.8,30.14,NNW,337,3.0,5.0,46,0.00,,,0.00,LWC V2.10 B1813,2013-04-06 20:24:00,
2013-04-06 12:29:00,13.9,-3.9,30.14,ESE,117,5.0,6.0,44,0.00,,,0.00,LWC V2.10 B1813,2013-04-06 20:29:00,
2013-04-06 12:34:00,13.3,-4.0,30.14,NE,42,5.0,11.0,45,0.00,,,0.00,LWC V2.10 B1813,2013-04-06 20:34:00,
2013-04-06 12:39:00,12.5,-4.3,30.14,NNE,26,6.0,12.0,46,0.00,,,0.00,LWC V2.10 B1813,2013-04-06 20:39:00,
2013-04-06 12:44:00,12.5,-3.0,30.14,NNE,32,5.0,9.0,49,0.00,,,0.00,LWC V2.10 B1813,2013-04-06 20:44:00,
2013-04-06 12:49:00,13.7,-1.0,30.14,NNW,331,3.0,8.0,51,0.00,,,0.00,LWC V2.10 B1813,2013-04-06 20:49:00,
2013-04-06 12:54:00,14.9,-2.6,30.14,North,0,0.0,3.0,45,0.00,,,0.00,LWC V2.10 B1813,2013-04-06 20:54:00,
2013-04-06 12:59:00,15.5,-2.0,30.14,NNW,336,3.0,5.0,45,0.00,,,0.00,LWC V2.10 B1813,2013-04-06 20:59:00,
2013-04-06 13:04:00,15.2,-0.9,30.14,North,0,2.0,11.0,48,0.00,,,0.00,LWC V2.10 B1813,2013-04-06 21:04:00,
2013-04-06 13:09:00,15.9,-2.1,30.13,NW,322,0.0,3.0,44,0.00,,,0.00,LWC V2.10 B1813,2013-04-06 21:09:00,
2013-04-06 13:14:00,16.3,-0.4,30.13,North,5,9.0,9.0,47,0.00,,,0.00,LWC V2.10 B1813,2013-04-06 21:14:00,
2013-04-06 13:19:00,16.4,-0.3,30.13,North,5,8.0,10.0,47,0.00,,,0.00,LWC V2.10 B1813,2013-04-06 21:19:00,
2013-04-06 13:24:00,16.4,-0.7,30.13,NNW,332,3.0,6.0,46,0.00,,,0.00,LWC V2.10 B1813,2013-04-06 21:24:00,
2013-04-06 13:29:00,16.5,-2.0,30.13,NNE,24,5.0,9.0,43,0.00,,,0.00,LWC V2.10 B1813,2013-04-06 21:29:00,
2013-04-06 13:34:00,15.9,-1.6,30.13,NE,46,3.0,12.0,45,0.00,,,0.00,LWC V2.10 B1813,2013-04-06 21:34:00,
2013-04-06 13:39:00,15.5,-2.5,30.13,NE,41,2.0,12.0,44,0.00,,,0.00,LWC V2.10 B1813,2013-04-06 21:39:00,
2013-04-06 13:44:00,15.3,-1.7,30.13,NNW,342,0.0,1.0,46,0.00,,,0.00,LWC V2.10 B1813,2013-04-06 21:44:00,
2013-04-06 13:49:00,16.0,-1.1,30.13,NE,46,5.0,8.0,46,0.00,,,0.00,LWC V2.10 B1813,2013-04-06 21:49:00,
2013-04-06 13:54:00,16.4,-0.7,30.13,NNE,28,4.0,12.0,46,0.00,,,0.00,LWC V2.10 B1813,2013-04-06 21:54:00,
2013-04-06 13:59:00,16.1,-2.4,30.13,NNE,19,2.0,8.0,43,0.00,,,0.00,LWC V2.10 B1813,2013-04-06 21:59:00,
2013-04-06 14:04:00,15.5,-3.0,30.13,NE,34,4.0,5.0,43,0.00,,,0.00,LWC V2.10 B1813,2013-04-06 22:04:00,
2013-04-06 14:09:00,15.2,-2.3,30.13,NE,47,3.0,6.0,45,0.00,,,0.00,LWC V2.10 B1813,2013-04-06 22:09:00,
2013-04-06 14:14:00,15.4,-2.1,30.13,NNW,346,2.0,8.0,45,0.00,,,0.00,LWC V2.10 B1813,2013-04-06 22:14:00,
2013-04-06 14:19:00,15.9,-1.6,30.13,North,0,2.0,11.0,45,0.00,,,0.00,LWC V2.10 B1813,2013-04-06 22:19:00,
2013-04-06 14:24:00,16.4,-0.7,30.13,North,0,5.0,11.0,46,0.00,,,0.00,LWC V2.10 B1813,2013-04-06 22:24:00,
2013-04-06 14:29:00,16.1,-2.4,30.13,NNE,29,2.0,6.0,43,0.00,,,0.00,LWC V2.10 B1813,2013-04-06 22:29:00,
2013-04-06 14:34:00,16.2,-1.4,30.13,NNE,26,2.0,7.0,45,0.00,,,0.00,LWC V2.10 B1813,2013-04-06 22:34:00,
2013-04-06 14:39:00,16.6,-1.0,30.13,NE,34,4.0,8.0,45,0.00,,,0.00,LWC V2.10 B1813,2013-04-06 22:39:00,
2013-04-06 14:44:00,16.8,-0.8,30.13,NE,46,7.0,9.0,45,0.00,,,0.00,LWC V2.10 B1813,2013-04-06 22:44:00,
2013-04-06 14:49:00,16.6,-1.0,30.13,North,355,2.0,13.0,45,0.00,,,0.00,LWC V2.10 B1813,2013-04-06 22:49:00,
2013-04-06 14:54:00,16.8,-1.8,30.13,NNE,22,4.0,7.0,43,0.00,,,0.00,LWC V2.10 B1813,2013-04-06 22:54:00,
2013-04-06 14:59:00,17.2,-0.4,30.13,North,9,4.0,10.0,45,0.00,,,0.00,LWC V2.10 B1813,2013-04-06 22:59:00,
2013-04-06 15:04:00,17.3,-1.3,30.13,North,5,1.0,9.0,43,0.00,,,0.00,LWC V2.10 B1813,2013-04-06 23:04:00,
2013-04-06 15:09:00,17.2,-0.9,30.13,NNW,339,0.0,9.0,44,0.00,,,0.00,LWC V2.10 B1813,2013-04-06 23:09:00,
2013-04-06 15:14:00,17.5,0.7,30.13,North,0,7.0,12.0,47,0.00,,,0.00,LWC V2.10 B1813,2013-04-06 23:14:00,
2013-04-06 15:19:00,17.5,0.3,30.13,NNE,18,5.0,9.0,46,0.00,,,0.00,LWC V2.10 B1813,2013-04-06 23:19:00,
2013-04-06 15:24:00,17.7,-1.4,30.13,NW,315,4.0,10.0,42,0.00,,,0.00,LWC V2.10 B1813,2013-04-06 23:24:00,
2013-04-06 15:29:00,17.1,-0.5,30.13,NNE,16,8.0,11.0,45,0.00,,,0.00,LWC V2.10 B1813,2013-04-06 23:29:00,
2013-04-06 15:34:00,17.0,-1.1,30.13,North,0,9.0,12.0,44,0.00,,,0.00,LWC V2.10 B1813,2013-04-06 23:34:00,
2013-04-06 15:39:00,17.2,-0.9,30.13,NNW,334,2.0,7.0,44,0.00,,,0.00,LWC V2.10 B1813,2013-04-06 23:39:00,
2013-04-06 15:44:00,16.9,-1.2,30.13,NNW,328,3.0,12.0,44,0.00,,,0.00,LWC V2.10 B1813,2013-04-06 23:44:00,
2013-04-06 15:49:00,16.8,-0.8,30.13,NNE,30,5.0,12.0,45,0.00,,,0.00,LWC V2.10 B1813,2013-04-06 23:49:00,
2013-04-06 15:54:00,16.8,0.1,30.13,North,355,4.0,10.0,47,0.00,,,0.00,LWC V2.10 B1813,2013-04-06 23:54:00,
2013-04-06 15:59:00,16.7,-1.4,30.13,NNE,19,5.0,13.0,44,0.00,,,0.00,LWC V2.10 B1813,2013-04-06 23:59:00,
2013-04-06 16:04:00,16.4,-1.2,30.13,North,0,4.0,6.0,45,0.00,,,0.00,LWC V2.10 B1813,2013-04-07 00:04:00,
2013-04-06 16:09:00,16.6,-0.1,30.13,NNW,333,4.0,12.0,47,0.00,,,0.00,LWC V2.10 B1813,2013-04-07 00:09:00,
2013-04-06 16:14:00,16.6,-1.5,30.13,NNE,22,6.0,11.0,44,0.00,,,0.00,LWC V2.10 B1813,2013-04-07 00:14:00,
2013-04-06 16:19:00,16.4,-2.1,30.13,North,350,8.0,17.0,43,0.00,,,0.00,LWC V2.10 B1813,2013-04-07 00:19:00,
2013-04-06 16:24:00,16.3,-0.8,30.13,NW,321,8.0,15.0,46,0.00,,,0.00,LWC V2.10 B1813,2013-04-07 00:24:00,
2013-04-06 16:29:00,16.6,-0.5,30.13,NW,318,7.0,13.0,46,0.00,,,0.00,LWC V2.10 B1813,2013-04-07 00:29:00,
2013-04-06 16:34:00,16.7,0.0,30.13,North,0,2.0,14.0,47,0.00,,,0.00,LWC V2.10 B1813,2013-04-07 00:34:00,
2013-04-06 16:39:00,16.5,-1.1,30.13,North,0,5.0,14.0,45,0.00,,,0.00,LWC V2.10 B1813,2013-04-07 00:39:00,
2013-04-06 16:44:00,16.4,-1.2,30.13,NNW,342,14.0,14.0,45,0.00,,,0.00,LWC V2.10 B1813,2013-04-07 00:44:00,
2013-04-06 16:49:00,15.9,-0.7,30.13,North,5,5.0,14.0,47,0.00,,,0.00,LWC V2.10 B1813,2013-04-07 00:49:00,
2013-04-06 16:54:00,15.8,-1.3,30.13,NW,323,9.0,13.0,46,0.00,,,0.00,LWC V2.10 B1813,2013-04-07 00:54:00,
2013-04-06 16:59:00,15.8,-1.3,30.13,North,355,14.0,16.0,46,0.00,,,0.00,LWC V2.10 B1813,2013-04-07 00:59:00,
2013-04-06 17:04:00,15.8,-1.7,30.13,NNW,327,4.0,11.0,45,0.00,,,0.00,LWC V2.10 B1813,2013-04-07 01:04:00,
2013-04-06 17:09:00,15.9,-0.7,30.13,NNW,337,12.0,13.0,47,0.00,,,0.00,LWC V2.10 B1813,2013-04-07 01:09:00,
2013-04-06 17:14:00,15.8,-0.8,30.13,NW,322,2.0,15.0,47,0.00,,,0.00,LWC V2.10 B1813,2013-04-07 01:14:00,
2013-04-06 17:19:00,15.7,-0.9,30.13,NNW,343,5.0,16.0,47,0.00,,,0.00,LWC V2.10 B1813,2013-04-07 01:19:00,
2013-04-06 17:24:00,15.4,-0.7,30.13,NNW,342,8.0,14.0,48,0.00,,,0.00,LWC V2.10 B1813,2013-04-07 01:24:00,
2013-04-06 17:29:00,15.2,-1.4,30.13,NNE,24,17.0,19.0,47,0.00,,,0.00,LWC V2.10 B1813,2013-04-07 01:29:00,
2013-04-06 17:34:00,14.8,-1.3,30.13,North,0,12.0,12.0,48,0.00,,,0.00,LWC V2.10 B1813,2013-04-07 01:34:00,
2013-04-06 17:39:00,14.6,-1.5,30.13,NNE,12,11.0,14.0,48,0.00,,,0.00,LWC V2.10 B1813,2013-04-07 01:39:00,
2013-04-06 17:44:00,14.3,-2.2,30.13,NW,318,5.0,9.0,47,0.00,,,0.00,LWC V2.10 B1813,2013-04-07 01:44:00,
2013-04-06 17:49:00,14.3,-1.8,30.13,North,350,3.0,11.0,48,0.00,,,0.00,LWC V2.10 B1813,2013-04-07 01:49:00,
2013-04-06 17:54:00,14.1,-1.5,30.13,NW,320,4.0,15.0,49,0.00,,,0.00,LWC V2.10 B1813,2013-04-07 01:54:00,
2013-04-06 17:59:00,13.7,-1.9,30.13,North,0,4.0,14.0,49,0.00,,,0.00,LWC V2.10 B1813,2013-04-07 01:59:00,
2013-04-06 18:04:00,13.3,-1.8,30.14,NW,325,12.0,18.0,50,0.00,,,0.00,LWC V2.10 B1813,2013-04-07 02:04:00,
2013-04-06 18:09:00,13.1,-2.0,30.13,North,11,6.0,14.0,50,0.00,,,0.00,LWC V2.10 B1813,2013-04-07 02:09:00,
2013-04-06 18:14:00,12.8,-1.9,30.14,NNW,338,6.0,16.0,51,0.00,,,0.00,LWC V2.10 B1813,2013-04-07 02:14:00,
2013-04-06 18:19:00,12.6,-2.5,30.13,North,0,6.0,16.0,50,0.00,,,0.00,LWC V2.10 B1813,2013-04-07 02:19:00,
2013-04-06 18:24:00,12.2,-2.4,30.14,WNW,290,12.0,16.0,51,0.00,,,0.00,LWC V2.10 B1813,2013-04-07 02:24:00,
2013-04-06 18:29:00,11.9,-2.3,30.14,NNW,329,4.0,17.0,52,0.00,,,0.00,LWC V2.10 B1813,2013-04-07 02:29:00,
2013-04-06 18:34:00,11.8,-2.8,30.14,NNW,346,4.0,14.0,51,0.00,,,0.00,LWC V2.10 B1813,2013-04-07 02:34:00,
2013-04-06 18:39:00,11.7,-2.9,30.14,North,349,5.0,10.0,51,0.00,,,0.00,LWC V2.10 B1813,2013-04-07 02:39:00,
2013-04-06 18:44:00,11.7,-2.1,30.14,NW,307,3.0,11.0,53,0.00,,,0.00,LWC V2.10 B1813,2013-04-07 02:44:00,
2013-04-06 18:49:00,11.6,-2.2,30.14,NW,319,5.0,13.0,53,0.00,,,0.00,LWC V2.10 B1813,2013-04-07 02:49:00,
2013-04-06 18:54:00,11.4,-2.4,30.14,NW,317,7.0,14.0,53,0.00,,,0.00,LWC V2.10 B1813,2013-04-07 02:54:00,
2013-04-06 18:59:00,11.2,-3.0,30.14,North,0,7.0,17.0,52,0.00,,,0.00,LWC V2.10 B1813,2013-04-07 02:59:00,
2013-04-06 19:04:00,10.8,-3.3,30.14,NNE,15,4.0,13.0,52,0.00,,,0.00,LWC V2.10 B1813,2013-04-07 03:04:00,
2013-04-06 19:09:00,10.6,-3.1,30.14,NNW,348,15.0,18.0,53,0.00,,,0.00,LWC V2.10 B1813,2013-04-07 03:09:00,
2013-04-06 19:14:00,10.3,-3.0,30.14,NW,311,4.0,14.0,54,0.00,,,0.00,LWC V2.10 B1813,2013-04-07 03:14:00,
2013-04-06 19:19:00,10.0,-3.3,30.14,NW,319,12.0,16.0,54,0.00,,,0.00,LWC V2.10 B1813,2013-04-07 03:19:00,
2013-04-06 19:24:00,9.9,-3.0,30.14,NNW,330,4.0,22.0,55,0.00,,,0.00,LWC V2.10 B1813,2013-04-07 03:24:00,
2013-04-06 19:29:00,9.9,-3.8,30.14,NNW,327,4.0,15.0,53,0.00,,,0.00,LWC V2.10 B1813,2013-04-07 03:29:00,
2013-04-06 19:34:00,9.6,-4.4,30.14,NNW,327,7.0,13.0,52,0.00,,,0.00,LWC V2.10 B1813,2013-04-07 03:34:00,
2013-04-06 19:39:00,9.5,-4.1,30.14,North,0,3.0,14.0,53,0.00,,,0.00,LWC V2.10 B1813,2013-04-07 03:39:00,
2013-04-06 19:44:00,9.4,-4.2,30.15,North,5,9.0,12.0,53,0.00,,,0.00,LWC V2.10 B1813,2013-04-07 03:44:00,
2013-04-06 19:49:00,9.2,-4.0,30.15,NNW,337,3.0,11.0,54,0.00,,,0.00,LWC V2.10 B1813,2013-04-07 03:49:00,
2013-04-06 19:54:00,9.0,-4.6,30.15,NNW,345,8.0,11.0,53,0.00,,,0.00,LWC V2.10 B1813,2013-04-07 03:54:00,
2013-04-06 19:59:00,8.8,-4.4,30.15,NNE,30,11.0,14.0,54,0.00,,,0.00,LWC V2.10 B1813,2013-04-07 03:59:00,
2013-04-06 20:00:00,8.8,-4.8,30.15,NNW,329,5.0,13.0,53,0.00,,,0.00,LWC V2.10 B1813,2013-04-07 04:00:00,
2013-04-06 20:04:00,8.6,-5.0,30.15,North,11,7.0,15.0,53,0.00,,,0.00,LWC V2.10 B1813,2013-04-07 04:04:00,
2013-04-06 20:09:00,8.3,-4.9,30.15,NW,315,5.0,12.0,54,0.00,,,0.00,LWC V2.10 B1813,2013-04-07 04:09:00,
2013-04-06 20:14:00,8.1,-5.4,30.15,North,0,16.0,16.0,53,0.00,,,0.00,LWC V2.10 B1813,2013-04-07 04:14:00,
2013-04-06 20:16:00,8.0,-5.2,30.15,NW,321,11.0,16.0,54,0.00,,,0.00,LWC V2.10 B1813,2013-04-07 04:16:00,
2013-04-06 20:21:00,7.8,-5.0,30.15,North,11,11.0,19.0,55,0.00,,,0.00,LWC V2.10 B1813,2013-04-07 04:21:00,
2013-04-06 20:26:00,7.6,-5.2,30.15,NNW,337,2.0,13.0,55,0.00,,,0.00,LWC V2.10 B1813,2013-04-07 04:26:00,
2013-04-06 20:31:00,7.5,-5.2,30.15,North,0,10.0,10.0,55,0.00,,,0.00,LWC V2.10 B1813,2013-04-07 04:31:00,
2013-04-06 20:36:00,7.3,-5.8,30.15,NE,44,3.0,13.0,54,0.00,,,0.00,LWC V2.10 B1813,2013-04-07 04:36:00,
2013-04-06 20:41:00,7.1,-6.0,30.15,North,355,5.0,15.0,54,0.00,,,0.00,LWC V2.10 B1813,2013-04-07 04:41:00,
2013-04-06 20:46:00,7.0,-6.5,30.15,North,0,6.0,18.0,53,0.00,,,0.00,LWC V2.10 B1813,2013-04-07 04:46:00,
2013-04-06 20:51:00,6.8,-6.3,30.15,NNW,342,10.0,19.0,54,0.00,,,0.00,LWC V2.10 B1813,2013-04-07 04:51:00,
2013-04-06 20:56:00,6.7,-6.8,30.15,NE,38,2.0,9.0,53,0.00,,,0.00,LWC V2.10 B1813,2013-04-07 04:56:00,
2013-04-06 21:01:00,6.6,-7.2,30.16,NNE,15,5.0,12.0,52,0.00,,,0.00,LWC V2.10 B1813,2013-04-07 05:01:00,
2013-04-06 21:06:00,6.5,-6.6,30.16,North,0,15.0,20.0,54,0.00,,,0.00,LWC V2.10 B1813,2013-04-07 05:06:00,
2013-04-06 21:11:00,6.5,-6.6,30.16,North,0,3.0,11.0,54,0.00,,,0.00,LWC V2.10 B1813,2013-04-07 05:11:00,
2013-04-06 21:16:00,6.4,-6.7,30.16,North,0,4.0,11.0,54,0.00,,,0.00,LWC V2.10 B1813,2013-04-07 05:16:00,
2013-04-06 21:21:00,6.3,-7.1,30.16,North,5,10.0,16.0,53,0.00,,,0.00,LWC V2.10 B1813,2013-04-07 05:21:00,
2013-04-06 21:26:00,6.2,-6.8,30.16,NE,53,7.0,12.0,54,0.00,,,0.00,LWC V2.10 B1813,2013-04-07 05:26:00,
2013-04-06 21:31:00,6.0,-6.7,30.16,NNW,344,3.0,14.0,55,0.00,,,0.00,LWC V2.10 B1813,2013-04-07 05:31:00,
2013-04-06 21:36:00,5.8,-7.6,30.16,NW,322,3.0,14.0,53,0.00,,,0.00,LWC V2.10 B1813,2013-04-07 05:36:00,
2013-04-06 21:41:00,5.8,-7.2,30.16,North,5,3.0,13.0,54,0.00,,,0.00,LWC V2.10 B1813,2013-04-07 05:41:00,
2013-04-06 21:46:00,5.7,-6.2,30.16,NW,316,1.0,9.0,57,0.00,,,0.00,LWC V2.10 B1813,2013-04-07 05:46:00,
2013-04-06 21:51:00,5.6,-6.3,30.16,North,0,4.0,14.0,57,0.00,,,0.00,LWC V2.10 B1813,2013-04-07 05:51:00,
2013-04-06 21:56:00,5.6,-6.7,30.16,NW,311,4.0,4.0,56,0.00,,,0.00,LWC V2.10 B1813,2013-04-07 05:56:00,
2013-04-06 22:01:00,5.6,-6.7,30.16,NNE,19,4.0,6.0,56,0.00,,,0.00,LWC V2.10 B1813,2013-04-07 06:01:00,
2013-04-06 22:06:00,5.5,-6.4,30.16,NNW,347,6.0,7.0,57,0.00,,,0.00,LWC V2.10 B1813,2013-04-07 06:06:00,
2013-04-06 22:11:00,5.5,-6.4,30.16,NNW,333,4.0,9.0,57,0.00,,,0.00,LWC V2.10 B1813,2013-04-07 06:11:00,
2013-04-06 22:16:00,5.4,-7.2,30.16,ENE,59,1.0,4.0,55,0.00,,,0.00,LWC V2.10 B1813,2013-04-07 06:16:00,
2013-04-06 22:21:00,5.4,-7.2,30.16,NNW,340,2.0,11.0,55,0.00,,,0.00,LWC V2.10 B1813,2013-04-07 06:21:00,
2013-04-06 22:26:00,5.5,-7.1,30.16,NNW,331,4.0,5.0,55,0.00,,,0.00,LWC V2.10 B1813,2013-04-07 06:26:00,
2013-04-06 22:31:00,5.5,-7.1,30.17,NNW,334,4.0,6.0,55,0.00,,,0.00,LWC V2.10 B1813,2013-04-07 06:31:00,
2013-04-06 22:36:00,5.6,-7.4,30.16,North,0,2.0,5.0,54,0.00,,,0.00,LWC V2.10 B1813,2013-04-07 06:36:00,
2013-04-06 22:41:00,5.6,-7.0,30.16,NW,318,7.0,11.0,55,0.00,,,0.00,LWC V2.10 B1813,2013-04-07 06:41:00,
2013-04-06 22:46:00,5.6,-6.7,30.16,NW,323,3.0,7.0,56,0.00,,,0.00,LWC V2.10 B1813,2013-04-07 06:46:00,
2013-04-06 22:51:00,5.6,-5.9,30.16,North,5,4.0,6.0,58,0.00,,,0.00,LWC V2.10 B1813,2013-04-07 06:51:00,
2013-04-06 22:56:00,5.6,-5.9,30.16,North,0,4.0,6.0,58,0.00,,,0.00,LWC V2.10 B1813,2013-04-07 06:56:00,
2013-04-06 23:01:00,5.6,-5.9,30.16,North,350,6.0,10.0,58,0.00,,,0.00,LWC V2.10 B1813,2013-04-07 07:01:00,
2013-04-06 23:06:00,5.7,-5.8,30.15,North,0,7.0,12.0,58,0.00,,,0.00,LWC V2.10 B1813,2013-04-07 07:06:00,
2013-04-06 23:11:00,5.8,-6.5,30.15,NE,34,1.0,5.0,56,0.00,,,0.00,LWC V2.10 B1813,2013-04-07 07:11:00,
2013-04-06 23:16:00,5.9,-5.0,30.15,NNW,335,3.0,3.0,60,0.00,,,0.00,LWC V2.10 B1813,2013-04-07 07:16:00,
2013-04-06 23:21:00,6.0,-4.5,30.15,NW,325,2.0,3.0,61,0.00,,,0.00,LWC V2.10 B1813,2013-04-07 07:21:00,
2013-04-06 23:26:00,5.9,-5.3,30.15,NNW,337,2.0,7.0,59,0.00,,,0.00,LWC V2.10 B1813,2013-04-07 07:26:00,
2013-04-06 23:31:00,5.8,-5.4,30.16,NW,323,0.0,5.0,59,0.00,,,0.00,LWC V2.10 B1813,2013-04-07 07:31:00,
2013-04-06 23:36:00,5.6,-6.3,30.16,North,0,3.0,6.0,57,0.00,,,0.00,LWC V2.10 B1813,2013-04-07 07:36:00,
2013-04-06 23:41:00,5.5,-5.3,30.16,North,0,3.0,6.0,60,0.00,,,0.00,LWC V2.10 B1813,2013-04-07 07:41:00,
2013-04-06 23:46:00,5.5,-5.0,30.16,NNW,346,1.0,5.0,61,0.00,,,0.00,LWC V2.10 B1813,2013-04-07 07:46:00,
2013-04-06 23:51:00,5.4,-5.4,30.16,NNW,334,3.0,5.0,60,0.00,,,0.00,LWC V2.10 B1813,2013-04-07 07:51:00,
2013-04-06 23:56:00,5.4,-5.1,30.16,North,0,1.0,6.0,61,0.00,,,0.00,LWC V2.10 B1813,2013-04-07 07:56:00,